Pope Field Airport, NC

8:13 PM EDT on May 24, 2017 (GMT -0400)
Pope Field Airport

Weather History for KPOB - October, 2013

Change the Weather History Date:

Friday, October 4, 2013

  Actual Average Record
Temperature  
Mean Temperature 73 °F -  
Max Temperature 86 °F 79 °F 96 °F (1986)
Min Temperature 60 °F 56 °F 38 °F (1981)
Cooling Degree Days 8    
Growing Degree Days 23 (Base 50)    
Moisture  
Dew Point 63 °F    
Average Humidity 75    
Maximum Humidity 97    
Minimum Humidity 43    
Precipitation  
Precipitation 0.00 in - - ()
Sea Level Pressure  
Sea Level Pressure 30.12 in    
Wind  
Wind Speed 2 mph (WNW)    
Max Wind Speed 7 mph    
Max Gust Speed -    
Visibility 10 miles    
Events      
Averages and records for this station are not official NWS values.
T = Trace of Precipitation, MM = Missing Value Source: NWS Daily Summary

Daily Weather History Graph

Daily Weather History Graph

Search for Another Location

Airport or City:

Trip Planner

Search our weather history database for the weather conditions in past years. The results will help you decide how hot, cold, wet, or windy it might be!

Date:

Astronomy

Oct. 04, 2013 Rise Set
Actual Time 7:13 AM EDT 6:55 PM EDT
Civil Twilight 6:48 AM EDT 7:20 PM EDT
Nautical Twilight 6:18 AM EDT 7:50 PM EDT
Astronomical Twilight 5:49 AM EDT 8:19 PM EDT
Moon 6:46 AM EDT (10/4) 6:38 PM EDT (10/4)
Length of Visible Light 12h 32m
Length of Day
11h 42m
Waning Crescent, 0% of the Moon is Illuminated
Oct 4
Waning Crescent
Oct 4
New
Oct 11
First Quarter
Oct 18
Full
Oct 26
Last Quarter

Hourly Weather History & Observations

Time (EDT) Temp. Heat Index Dew Point Humidity Pressure Visibility Wind Dir Wind Speed Gust Speed Precip Events Conditions
12:58 AM 68.9 °F - 63.3 °F 82% 30.12 in 10.0 mi WSW 3.5 mph - N/A   Clear
1:58 AM 67.6 °F - 63.1 °F 85% 30.13 in 10.0 mi West 3.5 mph - N/A   Clear
2:58 AM 67.5 °F - 63.5 °F 87% 30.12 in 10.0 mi WSW 4.6 mph - N/A   Clear
3:58 AM 64.9 °F - 62.1 °F 90% 30.12 in 10.0 mi Calm Calm - N/A   Clear
4:58 AM 62.1 °F - 60.8 °F 96% 30.13 in 10.0 mi NNE 2.3 mph - N/A   Clear
5:58 AM 61.5 °F - 60.4 °F 96% 30.13 in 10.0 mi Calm Calm - N/A   Clear
6:58 AM 60.3 °F - 59.5 °F 97% 30.14 in 10.0 mi NE 1.2 mph - N/A   Partly Cloudy
7:58 AM 61.9 °F - 59.9 °F 93% 30.15 in 10.0 mi Calm Calm - N/A   Clear
8:58 AM 68.7 °F - 63.3 °F 83% 30.16 in 10.0 mi Calm Calm - N/A   Clear
9:58 AM 75.7 °F - 66.9 °F 74% 30.16 in 10.0 mi SW 4.6 mph - N/A   Clear
10:58 AM 78.6 °F - 67.1 °F 68% 30.16 in 10.0 mi Variable 2.3 mph - N/A   Clear
11:58 AM 81.5 °F 83.7 °F 66.2 °F 60% 30.14 in 10.0 mi Variable 2.3 mph - N/A   Clear
12:58 PM 83.8 °F 84.9 °F 63.1 °F 50% 30.14 in 10.0 mi Variable 2.3 mph - N/A   Clear
1:58 PM 86.0 °F 86.6 °F 62.6 °F 45% 30.09 in 10.0 mi SW 2.3 mph - N/A   Partly Cloudy
2:58 PM 85.8 °F 86.1 °F 61.9 °F 44% 30.09 in 10.0 mi NNW 4.6 mph - N/A   Clear
3:58 PM 86.0 °F 86.1 °F 61.0 °F 43% 30.08 in 10.0 mi Variable 1.2 mph - N/A   Clear
4:58 PM 83.7 °F 84.1 °F 61.3 °F 47% 30.07 in 10.0 mi Calm Calm - N/A   Clear
5:58 PM 84.0 °F 84.7 °F 62.2 °F 48% 30.08 in 10.0 mi Calm Calm - N/A   Clear
6:58 PM 75.0 °F - 65.8 °F 73% 30.08 in 10.0 mi NNE 1.2 mph - N/A   Clear
7:58 PM 72.5 °F - 66.2 °F 81% 30.09 in 10.0 mi Calm Calm - N/A   Clear
8:58 PM 70.3 °F - 66.9 °F 89% 30.10 in 10.0 mi Calm Calm - N/A   Clear
9:58 PM 67.5 °F - 64.9 °F 92% 30.11 in 10.0 mi Calm Calm - N/A   Clear
10:58 PM 66.6 °F - 64.4 °F 93% 30.12 in 10.0 mi North 1.2 mph - N/A   Clear
11:58 PM 71.6 °F - 65.7 °F 81% 30.12 in 10.0 mi SW 6.9 mph - N/A   Clear